Regional Weather Roundup
Issued by NWS Raleigh/Durham, NC

Home | Current Version | Previous Version | Text Only | Print | Product List | Glossary On
Versions: 1 2 3 4 5 6 7 8 9 10 11 12 13 14 15 16 17 18 19 20 21 22 23 24 25 26 27 28
000
ASUS42 KRAH 290910
RWRRAH
NORTH CAROLINA WEATHER ROUNDUP
NATIONAL WEATHER SERVICE RALEIGH NC
500 AM EDT FRI APR 29 2016

NOTE: "FAIR" INDICATES FEW OR NO CLOUDS BELOW 12,000 FEET WITH NO
SIGNIFICANT WEATHER AND/OR OBSTRUCTIONS TO VISIBILITY.

NCZ001-053-055-056-065-067-291000-
WESTERN NORTH CAROLINA

CITY           SKY/WX    TMP DP  RH WIND       PRES   REMARKS
ASHEVILLE      CLEAR     62  50  64 CALM      30.02R
JEFFERSON      CLEAR     59  47  65 NW3       30.03R
MORGANTON      CLEAR     68  51  54 NW12      30.01R
HICKORY        CLEAR     60  58  92 E5        29.97R
RUTHERFORDTON  CLEAR     56  55  94 CALM      29.97R
MOUNT AIRY     CLOUDY    62  59  91 NE3       30.00R
BOONE          PTCLDY    59  49  70 NW7       30.04R
$$

NCZ021-022-025-041-071-084-088-291000-
CENTRAL NORTH CAROLINA

CITY           SKY/WX    TMP DP  RH WIND       PRES   REMARKS
CHARLOTTE      CLEAR     65  60  84 NE8       29.95R
GREENSBORO     FOG       60  60 100 N5        29.96S VSB 1/2
WINSTON-SALEM  FOG       59  58  96 N6        29.99R VSB 3/4
RALEIGH-DURHAM CLOUDY    62  60  93 N5        29.94S
FORT BRAGG     CLOUDY    66  65  97 N7        29.90R
FAYETTEVILLE   CLOUDY    67  65  93 N12       29.90R
BURLINGTON     CLOUDY    61  59  93 NW5       29.95S
LAURINBURG     CLEAR     66  63  90 N7        29.91R FOG
$$

NCZ011-015-027-028-043-044-047-080-103-291000-
NORTHEASTERN NORTH CAROLINA

CITY           SKY/WX    TMP DP  RH WIND       PRES   REMARKS
ROCKY MT-WILSO CLOUDY    59  59 100 N7        29.92S
GREENVILLE     CLOUDY    59  59 100 NE12      29.93S FOG
WASHINGTON     FOG       60  60  98 N7G17     29.90R VSB 3/4
ELIZABETH CITY CLOUDY    57  56  96 N14       29.93R
MANTEO         NOT AVBL
CAPE HATTERAS  CLOUDY    63  62  97 NE9       29.87S
$$

NCZ078-087-090-091-093-098-101-291000-
SOUTHEASTERN NORTH CAROLINA

CITY           SKY/WX    TMP DP  RH WIND       PRES   REMARKS
LUMBERTON      CLEAR     64  62  93 CALM      29.88S FOG
GOLDSBORO      CLOUDY    66  66 100 N7        29.88S FOG
KINSTON        CLOUDY    66  65  99 N8        29.90R
KENANSVILLE    CLEAR     65  64  98 CALM      29.90R FOG
NEW BERN       PTCLDY    65  63  93 N5        29.88F
CHERRY POINT   CLOUDY    68  66  93 CALM      29.87F
BEAUFORT       CLOUDY    69  67  93 CALM      29.86F
JACKSONVILLE   CLEAR     65  62  90 W3        29.87F
WILMINGTON     PTCLDY    69  66  90 SW8       29.88F
$$





USA.gov is the U.S. government's official web portal to all federal, state and local government web resources and services.